Tracking 18980 objects as of 20-Feb-2018
HD Live streaming from Space Station
objects crossing your sky now

FENGYUN 1C DEB

Track FENGYUN 1C DEB now!
10-day predictions


NORAD ID: 37030
Int'l Code: 1999-025EDN
Perigee: 787.2 km
Apogee: 839.2 km
Inclination: 99.7 °
Period: 101.0 minutes
Semi major axis: 7184 km
RCS: 0.0111 m2 (small)
Launch date: May 10, 1999
Source: People's Republic of China (PRC)
Launch site: Taiyaun Space Center, China (TSC)

Note: This is SATELLITE DEBRIS
aabbcc
Your satellite tracking list
Your tracking list is empty




NASA's NSSDC Master Catalog

Two Line Element Set (TLE):
1 37030U 99025EDN 18047.85909819  .00001800  00000-0  77545-3 0  9997
2 37030  99.7153  69.0869 0036155 170.6930 189.4924 14.25716916483052
Source of the keplerian elements: AFSPC